W8WLC-15 Weather Reports


Display with metric or nautical units.
time (UTC)temp
F
wind
direction
speed
MPH
gust
MPH
rain 1hr
in
rain 24hr
in
rain mn
in
humidity
%
barometer
mb
20220707045404 56 0 0.0 0.0 0.00 0.00 0.00 96 1018.8
20220707044404 56 0 0.0 0.0 0.00 0.00 0.00 95 1018.7
20220707043406 57 0 0.0 0.0 0.00 0.00 0.00 95 1018.7
20220707042404 57 0 0.0 0.0 0.00 0.00 0.00 95 1018.8
20220707041404 57 0 0.0 0.0 0.00 0.00 0.00 94 1018.7
20220707040405 58 0 0.0 0.0 0.00 0.00 0.00 94 1018.7
20220707035405 58 0 0.0 0.0 0.00 0.00 0.00 94 1018.7
20220707034405 58 0 0.0 0.0 0.00 0.00 0.00 93 1018.7
20220707033404 58 0 0.0 0.0 0.00 0.00 0.00 94 1018.7
20220707032405 58 0 0.0 0.0 0.00 0.00 0.00 94 1018.7
20220707031404 58 0 0.0 0.0 0.00 0.00 0.00 93 1018.7
20220707030404 59 0 0.0 0.0 0.00 0.00 0.00 93 1018.8
20220707025404 59 0 0.0 0.0 0.00 0.00 0.00 93 1018.8
20220707024406 59 0 0.0 0.0 0.00 0.00 0.00 93 1018.8
20220707023406 59 0 0.0 0.0 0.00 0.00 0.00 93 1018.9
20220707022404 59 0 0.0 0.0 0.00 0.00 0.00 92 1018.8
20220707021405 60 0 0.0 0.0 0.00 0.00 0.00 92 1018.7
20220707020405 60 0 0.0 0.0 0.00 0.00 0.00 91 1018.6
20220707015405 60 0 0.0 0.0 0.00 0.00 0.00 90 1018.6
20220707014404 61 0 0.0 0.0 0.00 0.00 0.00 89 1018.6
20220707013404 62 0 0.0 0.0 0.00 0.00 0.00 88 1018.5
20220707012405 63 0 0.0 0.0 0.00 0.00 0.00 86 1018.6
20220707011404 64 0 0.0 0.0 0.00 0.00 0.00 85 1018.5
20220707010404 64 0 0.0 0.0 0.00 0.00 0.00 85 1018.5
20220707005404 64 0 0.0 1.0 0.00 0.00 0.00 84 1018.3
20220707004405 65 0 0.0 1.0 0.00 0.00 0.00 83 1018.4
20220707003405 65 0 0.0 5.0 0.00 0.00 0.00 83 1018.3
20220707002404 66 0 0.0 7.0 0.00 0.00 0.00 83 1018.4
20220707001404 66 0 0.0 4.0 0.00 0.00 0.00 82 1018.4
20220707000404 66 0 0.0 2.0 0.00 0.00 0.00 83 1018.5
20220706235406 66 0 0.0 3.0 0.00 0.00 0.00 82 1018.5
20220706234405 66 87 1.0 8.0 0.00 0.00 0.00 81 1018.5
20220706233404 66 0 0.0 7.0 0.00 0.00 0.00 82 1018.4
20220706232404 66 0 0.0 4.0 0.00 0.00 0.00 82 1018.5
20220706231404 67 0 0.0 6.0 0.00 0.00 0.00 82 1018.5
20220706230405 67 0 0.0 4.0 0.00 0.00 0.00 82 1018.5
20220706225405 67 0 0.0 4.0 0.00 0.00 0.00 81 1018.4
20220706224405 67 85 1.0 4.0 0.00 0.00 0.00 81 1018.5
20220706223405 67 0 0.0 4.0 0.00 0.00 0.00 82 1018.4
20220706222405 67 108 1.0 5.0 0.00 0.00 0.00 80 1018.5
20220706221404 68 0 0.0 7.0 0.00 0.00 0.00 80 1018.5
20220706220405 68 0 0.0 7.0 0.00 0.00 0.00 80 1018.5
20220706215405 68 0 0.0 7.0 0.00 0.00 0.00 81 1018.6
20220706214405 69 88 1.0 6.0 0.00 0.00 0.00 78 1018.7
20220706213406 68 0 0.0 7.0 0.00 0.00 0.00 80 1018.7
20220706212405 68 97 1.0 4.0 0.00 0.00 0.00 81 1018.6
20220706211404 68 0 0.0 4.0 0.00 0.00 0.00 81 1018.6
20220706210404 68 96 2.0 6.0 0.00 0.00 0.00 79 1018.5
20220706205404 68 100 1.0 4.0 0.00 0.00 0.00 80 1018.6
20220706204405 68 93 1.0 5.0 0.00 0.00 0.00 81 1018.6
20220706203405 67 0 0.0 1.0 0.00 0.00 0.00 80 1018.7
20220706202404 67 0 0.0 4.0 0.00 0.00 0.00 80 1018.6
20220706201405 67 101 1.0 4.0 0.00 0.00 0.00 80 1018.8
20220706200404 67 0 0.0 3.0 0.00 0.00 0.00 81 1018.7
20220706195404 67 0 0.0 6.0 0.00 0.00 0.00 81 1018.7
20220706194405 67 0 0.0 2.0 0.00 0.00 0.00 81 1018.8
20220706193405 67 0 0.0 4.0 0.00 0.00 0.00 82 1018.8
20220706192405 66 92 1.0 7.0 0.00 0.00 0.00 82 1018.8
20220706191405 66 0 0.0 9.0 0.00 0.00 0.00 83 1018.9
20220706190405 66 104 1.0 6.0 0.00 0.00 0.00 83 1018.8
20220706185405 65 0 0.0 9.0 0.00 0.00 0.00 83 1018.9
20220706184405 66 0 0.0 4.0 0.00 0.00 0.00 83 1018.8
20220706183406 66 0 0.0 3.0 0.00 0.00 0.00 84 1018.8
20220706182405 65 0 0.0 6.0 0.00 0.00 0.00 84 1018.8
20220706181405 65 0 0.0 3.0 0.00 0.00 0.00 84 1018.9
20220706180405 65 85 1.0 3.0 0.00 0.00 0.00 84 1019.0
20220706175405 65 0 0.0 3.0 0.00 0.00 0.00 84 1019.0
20220706174405 65 0 0.0 4.0 0.00 0.00 0.00 84 1018.9
20220706173406 65 0 0.0 6.0 0.00 0.00 0.00 86 1019.0
20220706172405 64 95 1.0 6.0 0.00 0.00 0.00 85 1019.0
20220706171405 64 90 2.0 7.0 0.00 0.00 0.00 84 1019.1
20220706170406 64 90 1.0 8.0 0.00 0.00 0.00 88 1019.0
20220706165405 63 100 2.0 8.0 0.00 0.00 0.00 87 1019.2
20220706164404 63 147 1.0 6.0 0.00 0.00 0.00 88 1019.1
20220706163405 63 93 1.0 9.0 0.00 0.00 0.00 86 1019.0
20220706162405 63 112 1.0 9.0 0.00 0.00 0.00 87 1019.0
20220706161405 63 0 0.0 5.0 0.00 0.00 0.00 88 1018.9
20220706160405 63 0 0.0 4.0 0.00 0.00 0.00 88 1018.9
20220706155405 61 100 1.0 7.0 0.00 0.00 0.00 90 1018.7
20220706154405 61 0 0.0 7.0 0.00 0.00 0.00 90 1018.9
20220706153405 61 94 1.0 6.0 0.00 0.00 0.00 89 1018.7
20220706152405 61 0 0.0 8.0 0.00 0.00 0.00 90 1018.7
20220706151405 62 0 0.0 8.0 0.00 0.00 0.00 90 1018.5
20220706150405 62 0 0.0 4.0 0.00 0.00 0.00 89 1018.6
20220706145405 62 90 1.0 4.0 0.00 0.00 0.00 89 1018.4
20220706144405 62 85 1.0 7.0 0.00 0.00 0.00 89 1018.4
20220706143406 62 91 2.0 8.0 0.00 0.00 0.00 89 1018.2
20220706142405 63 103 2.0 7.0 0.00 0.00 0.00 88 1018.1
20220706141404 63 0 0.0 3.0 0.00 0.00 0.00 89 1018.1
20220706140406 63 0 0.0 4.0 0.00 0.00 0.00 90 1018.1
20220706135406 62 92 1.0 9.0 0.00 0.00 0.00 91 1017.9
20220706134406 61 94 1.0 6.0 0.00 0.00 0.00 92 1017.8
20220706133406 61 96 1.0 7.0 0.00 0.00 0.00 92 1018.0
20220706132405 61 0 0.0 2.0 0.00 0.00 0.00 93 1018.0
20220706131405 61 89 1.0 5.0 0.00 0.00 0.00 92 1018.0
20220706130406 61 0 0.0 4.0 0.00 0.00 0.00 93 1018.1
20220706125405 61 0 0.0 6.0 0.00 0.00 0.00 94 1018.3
20220706124404 61 0 0.0 2.0 0.00 0.00 0.00 95 1017.9
20220706123404 61 0 0.0 6.0 0.00 0.00 0.00 95 1017.6
20220706122405 61 0 0.0 1.0 0.00 0.00 0.00 96 1017.6
20220706121405 61 0 0.0 1.0 0.00 0.00 0.00 97 1017.5
20220706120406 61 0 0.0 2.0 0.00 0.00 0.00 97 1017.4
20220706115405 60 0 0.0 3.0 0.00 0.00 0.00 97 1017.1
20220706114406 60 0 0.0 3.0 0.00 0.00 0.00 98 1017.0
20220706113405 60 0 0.0 0.0 0.00 0.00 0.00 98 1017.0
20220706112405 60 0 0.0 2.0 0.00 0.00 0.00 98 1017.1
20220706111405 60 0 0.0 0.0 0.00 0.00 0.00 98 1016.8
20220706110406 60 0 0.0 0.0 0.00 0.01 0.00 98 1016.8
20220706105405 60 0 0.0 0.0 0.00 0.01 0.00 98 1016.6
20220706104406 60 0 0.0 0.0 0.00 0.01 0.00 98 1016.4
20220706103405 60 0 0.0 0.0 0.00 0.01 0.00 97 1016.2
20220706102405 60 0 0.0 0.0 0.00 0.02 0.00 97 1016.0
20220706101406 60 0 0.0 0.0 0.00 0.02 0.00 97 1015.9
20220706100405 60 0 0.0 0.0 0.00 0.03 0.00 97 1015.8
20220706095406 60 0 0.0 0.0 0.00 0.04 0.00 97 1015.8
20220706094406 60 0 0.0 0.0 0.00 0.04 0.00 97 1015.8
20220706093405 60 0 0.0 0.0 0.00 0.05 0.00 97 1015.6
20220706092405 61 0 0.0 0.0 0.00 0.05 0.00 97 1015.5
20220706091406 61 0 0.0 0.0 0.00 0.06 0.00 97 1015.5
20220706090406 61 0 0.0 0.0 0.00 0.06 0.00 97 1015.5
20220706085407 61 0 0.0 0.0 0.00 0.07 0.00 97 1015.4
20220706084405 61 0 0.0 0.0 0.00 0.08 0.00 97 1015.3
20220706083406 61 0 0.0 0.0 0.00 0.09 0.00 97 1015.2
20220706082405 61 0 0.0 0.0 0.00 0.10 0.00 97 1015.2
20220706081405 61 0 0.0 0.0 0.00 0.11 0.00 97 1015.2
20220706080406 61 0 0.0 0.0 0.00 0.13 0.00 97 1015.2
20220706075405 61 0 0.0 0.0 0.00 0.16 0.00 97 1015.2
20220706074405 61 0 0.0 0.0 0.00 0.20 0.00 97 1015.1
20220706073405 61 0 0.0 0.0 0.00 0.21 0.00 97 1015.3
20220706072404 61 0 0.0 0.0 0.00 0.23 0.00 97 1014.9
20220706071404 61 0 0.0 0.0 0.00 0.26 0.00 97 1014.7
20220706070406 61 0 0.0 0.0 0.00 0.29 0.00 97 1014.4
20220706065404 61 0 0.0 0.0 0.00 0.32 0.00 97 1014.3
20220706064407 61 0 0.0 0.0 0.00 0.36 0.00 97 1014.2
20220706063406 61 0 0.0 0.0 0.00 0.39 0.00 97 1014.1
20220706062406 61 0 0.0 0.0 0.00 0.41 0.00 96 1013.9
20220706061406 61 0 0.0 8.0 0.00 0.42 0.00 96 1013.9
20220706060406 60 0 0.0 0.0 0.00 0.44 0.00 96 1013.7
20220706055403 61 0 0.0 2.0 0.00 0.46 0.00 96 1013.8
20220706054404 61 0 0.0 4.0 0.00 0.48 0.00 96 1013.7
20220706053403 61 0 0.0 2.0 0.00 0.50 0.00 95 1013.6
20220706052403 61 0 0.0 4.0 0.00 0.51 0.00 95 1013.6
20220706051403 62 0 0.0 4.0 0.00 0.51 0.00 95 1013.5
20220706050403 62 0 0.0 4.0 0.00 0.51 0.00 94 1013.7